Location: Champignolles
(47.0543°N, 4.5663°E)
Time: 00:06:02
(UTC+00:00)

N. Korean satellite - Pass Details

Date: 09 December 2021
Orbit: 447 x 491 km, 97.3° (Epoch: 21 January)

Event Time Altitude Azimuth Distance (km) Brightness Sun altitude
Rises 05:33:44 0° 4° (N) 2,463 10.0 -16.6°
Reaches altitude 10° 05:35:52 10° 356° (N) 1,585 9.0 -16.2°
Maximum altitude 05:38:59 36° 289° (WNW) 737 6.9 -15.7°
Drops below altitude 10° 05:42:06 10° 221° (SW) 1,575 8.9 -15.2°
Sets 05:44:13 0° 213° (SSW) 2,445 10.0 -14.9°
